STARLINK-1309, 45414

Orbit data source: Space-Track

STARLINK-1309, 45414 is a payload satellite owned by SpaceX/Seattle (US) in LEO that was launched on Wed, 18 Mar 2020 UTC via an FALCON 9 launch vehicle from the Air Force Eastern Test Range (AFETR). Payload-class satellites include a variety of spacecraft equipped with specific instruments for various scientific and technological missions. These include communications satellites like Starlink; space stations such as the ISS; scientific satellites like the Hubble; Earth observation satellites from companies like Planet Labs, Umbra, and HawkEye 360; GPS; miniature CubeSats for education and research; and military/defense satellites.

Loading next visibility...
Identifier
45414, 2020-019BG
Orbit
LEO
Country
Flag of USUS
Related business
Manufacturer
SpaceX/Seattle
Mission
Operational Commercial Communications
Bus & Motor
STARLINK, Unknown motor
Mass
260 kg wet, ~248 kg dry
Launch date (UTC)
2020-03-18 (6 years ago)
Launch vehicle
FALCON 9
Launch site
Air Force Eastern Test Range (AFETR)
Object type
Payload
Rocket body
Debris
Shape & HBR
Box + 1 Pan, 10.1 m
Radar Cross Section
13.562 m², Large (>1 m²)

Expand to show TLE details & history
Last TLE update: 19 hours ago

TLE from 19 hours ago
0 STARLINK-1309
1 45414U 20019BG  25296.45623021  .00004982  00000-0  35298-3 0  9990
2 45414  53.0551  32.6841 0001325  91.4157 268.6984 15.06417505309167
Epoch: 2025-10-23T10:56Z
TLE epoch observation values (Epoch: 2025-10-23T10:56:58.290Z)
Latitude
0.00001°
Longitude
-163.67399°
Altitude
548.058 km
Speed
7.589 km/s
True Right ascension
02h 10m 44s
True Declination
0° 00' 00"
Sunlit
Object was in full shadow at epoch
Visualization orbit readout
Latitude
Unknown
Longitude
Unknown
Altitude
Unknown
Speed
Unknown
Apparent Right ascension
Unknown
Apparent Declination
Unknown
Sunlit
N/A
Visualization observer readout
Local Sidereal Time
01:12:34
Azimuth
Unknown
Elevation
Unknown
Doppler factor
Unknown
Orbital elements
Apogee altitude
548.346 km
Perigee altitude
546.511 km
Semi-major axis
6,925.566 km
Eccentricity
0.00013
Inclination
53.0551°
RAAN
32.6841°
Arg. of periapsis
91.4157°
True anomaly
268.68322°
Mean anomaly
268.6984°
Eccentric anomaly
268.69081°
Mean motion
3.76583 °/min
Orbital period
95.6 mins
BSTAR
0.00035298
Loading maneuver chart data...
Computing Atmospheric mass density...
Loading historical data...
Loading historical data...
Loading historical data...
Loading historical data...
Loading historical data...
Loading historical data...
Loading historical data...

Documentation

Showing up to 5 results
|